Location: Bemmer
(51.5498°N, 5.6249°E)
Time: 13:56:22
(UTC+00:00)

HJ-1C - Pass Details

Date: 03 March 2021
Orbit: 428 x 441 km, 97.1° (Epoch: 11 April)

Event Time Altitude Azimuth Distance (km) Brightness Sun altitude
Rises 18:32:46 0° 170° (S) 2,417 7.0 -11.8°
Reaches altitude 10° 18:34:47 10° 173° (S) 1,550 6.0 -12.2°
Maximum altitude 18:38:06 71° 257° (WSW) 468 3.6 -12.7°
Drops below altitude 10° 18:41:26 10° 343° (NNW) 1,557 6.4 -13.2°
Sets 18:43:28 0° 346° (NNW) 2,429 7.4 -13.5°
